EHI
1 4 13 24 30 33 32 27 21 20 21 21 16 12 10 10 12 11 11 11 9 7 6 9 11 10 9 8 6 5 5 3 2 1 0 0 0 0 0 0 0 0 0
1 4 14 24 30 32 30 27 23 21 21 20 16 13 12 11 11 12 13 12 10 8 8 9 11 11 10 9 7 6 6 4 2 1 0 0 0 0 0 0 0 0 0
1 4 11 21 27 27 27 24 20 18 19 18 15 14 13 12 11 13 15 14 12 11 10 11 12 12 13 12 10 8 6 4 1 0 0 0 0 0 0 0 0 0 0
3 3 8 17 21 22 22 20 16 15 16 15 13 12 12 11 12 13 15 15 15 14 13 14 15 15 16 16 13 8 5 2 0 0 0 0 0 0 0 0 0 0 0
3 3 7 14 18 19 19 18 15 13 12 12 11 11 11 11 12 14 15 15 15 15 14 15 17 18 19 19 14 9 5 2 0 0 0 0 0 0 0 0 0 0 0
2 2 6 12 15 18 18 17 14 11 8 9 10 11 11 12 12 14 14 14 12 11 10 12 16 19 19 17 13 9 6 3 0 0 0 0 0 0 0 0 0 0 0
1 1 4 9 12 14 16 15 13 9 6 7 9 10 10 10 10 11 12 12 9 5 4 7 12 17 17 13 10 9 7 2 0 0 0 0 0 0 0 0 0 0 0
0 0 2 6 9 11 13 13 11 8 6 7 9 9 7 7 7 8 9 9 6 3 1 3 9 15 16 12 10 10 6 1 0 0 0 0 0 0 0 0 0 0 0
0 0 1 3 6 7 9 10 9 7 6 6 7 7 5 4 5 7 7 6 5 3 1 1 5 11 14 11 10 8 4 0 0 0 0 0 0 0 0 0 0 0 0
0 0 0 1 3 4 5 5 6 6 5 4 4 3 2 2 4 6 6 5 4 3 1 0 2 6 9 9 8 6 2 0 0 0 0 0 0 0 0 0 0 0 0
0 0 0 1 2 3 3 2 4 5 4 2 1 1 0 0 2 3 3 3 3 2 1 0 1 2 4 4 5 4 1 0 0 0 0 0 0 0 0 0 0 0 0
0 0 1 2 4 4 3 2 3 3 2 1 0 0 0 0 0 1 2 3 2 1 0 0 0 1 1 1 3 3 1 0 0 0 0 0 0 0 0 0 0 0 0
0 0 1 3 4 4 2 1 2 3 1 0 0 0 0 0 0 1 3 3 1 0 0 0 0 0 0 1 2 2 1 0 0 0 0 0 0 0 0 0 0 0 0
0 0 1 2 2 2 1 1 2 2 1 0 0 0 0 1 0 1 4 3 1 0 0 0 0 0 0 0 1 1 0 0 0 0 0 0 0 0 0 0 0 0 0
0 0 0 0 0 0 0 0 1 2 1 0 0 0 0 0 0 1 3 2 1 0 0 0 0 0 0 0 0 0 0 0 0 0 0 0 0 0 0 0 0 0 0
0 0 0 0 0 0 0 0 0 1 1 0 0 0 0 0 0 1 2 1 0 0 0 0 0 0 0 0 0 0 0 0 0 0 0 0 0 0 0 0 0 0 0
0 0 0 0 0 0 0 0 0 0 0 0 0 0 0 0 0 1 1 1 0 0 0 0 0 0 0 0 0 0 0 0 0 0 0 0 0 0 0 0 0 0 0
0 0 0 0 0 0 0 0 0 0 0 0 0 0 0 0 0 0 0 0 0 0 0 0 0 0 0 0 0 0 0 0 0 0 0 0 0 0 0 0 0 0 0
0 0 0 0 0 0 0 0 0 0 0 0 0 0 0 0 0 0 0 0 0 0 0 0 0 0 0 0 0 0 0 0 0 0 0 0 0 0 0 0 0 0 0
0 0 0 0 0 0 0 0 0 0 0 0 0 0 0 0 0 0 0 0 0 0 0 0 0 0 0 0 0 0 0 0 0 0 0 0 0 0 0 0 0 0 0
0 0 0 0 0 0 0 0 0 0 0 0 0 0 0 0 0 0 0 0 0 0 0 0 0 0 0 0 0 0 0 0 0 0 0 0 0 0 0 0 0 0 0
0 0 0 0 0 0 0 0 0 0 0 0 0 0 0 0 0 0 0 0 0 0 0 0 0 0 0 0 0 0 0 0 0 0 0 0 0 0 0 0 0 0 0
0 0 0 0 0 0 0 0 0 0 0 0 0 0 0 0 0 0 0 0 0 0 0 0 0 0 0 0 0 0 0 0 0 0 0 0 0 0 0 0 0 0 0
0 0 0 0 0 0 0 0 0 0 0 0 0 0 0 0 0 0 0 0 0 0 0 0 0 0 0 0 0 0 0 0 0 0 0 0 0 0 0 0 0 0 0
0 0 0 0 0 0 0 0 0 0 0 0 0 0 0 0 0 0 0 0 0 0 0 0 0 0 0 0 0 0 0 0 0 0 0 0 0 0 0 0 0 0 0
1 1 1 0 0 0 0 0 0 0 0 0 0 0 0 0 0 0 0 0 0 0 0 0 0 0 0 0 0 0 0 0 0 0 0 0 0 0 0 0 0 0 0
Wind_Speed
6 6 6 6 4 3 2 5 6 9 9 10 10 11 11 12 12 12 12 12 12 12 12 13 13 12 12 12 12 12 12 11 12 11 11 11 11 11 10 9 8 9 12
7 5 5 6 5 4 3 3 4 6 8 9 10 10 11 11 12 12 12 12 12 12 12 12 12 12 12 12 12 12 12 11 11 11 10 10 10 9 9 9 7 9 12
7 5 4 7 6 4 3 4 3 4 6 8 9 9 10 11 11 12 12 12 12 12 12 12 12 12 12 12 12 12 12 12 11 9 8 7 8 9 9 9 9 11 11
6 5 4 7 7 5 4 4 3 4 5 6 8 8 9 10 11 11 12 12 12 12 11 11 12 12 12 12 12 12 12 11 10 7 5 5 6 9 9 10 10 10 11
6 5 5 6 6 5 5 3 3 3 4 5 6 7 8 9 10 11 11 11 11 11 11 11 12 12 12 12 12 12 12 11 9 6 5 5 6 9 10 10 10 11 11
6 5 5 5 5 5 4 4 3 3 3 4 5 6 7 8 8 9 10 10 11 11 11 11 11 12 12 12 12 12 11 11 9 6 5 6 6 9 10 10 10 10 10
6 5 5 6 4 3 4 3 3 2 2 3 4 5 6 6 7 8 8 9 10 11 11 11 12 12 12 13 12 12 11 9 6 6 6 6 7 9 9 10 10 10 9
6 6 4 5 4 3 2 2 2 2 1 3 3 4 5 6 6 7 7 9 9 10 11 11 12 12 13 13 13 12 11 8 7 6 6 6 8 8 9 9 9 9 9
6 5 4 4 3 2 1 1 1 1 1 2 3 3 4 5 7 7 7 8 9 9 10 11 12 12 13 13 12 11 10 6 7 5 6 5 8 8 9 9 9 9 8
5 5 4 4 4 3 2 0 1 1 1 1 3 3 3 5 7 7 8 7 7 8 8 9 11 12 13 13 12 11 10 8 7 6 5 5 7 9 9 9 9 8 8
6 5 5 5 4 4 3 2 1 2 2 2 4 4 4 5 6 6 6 6 7 7 8 9 10 11 12 12 12 11 10 7 7 5 4 6 8 9 9 10 9 9 8
8 7 5 5 4 4 3 2 2 2 2 3 3 4 4 4 4 4 6 7 7 7 7 8 8 10 10 9 10 11 7 8 7 5 4 6 9 9 10 10 9 9 8
7 7 6 5 4 4 3 3 2 1 2 3 3 4 4 3 3 3 3 5 6 6 6 7 8 7 8 7 8 9 8 7 5 5 5 7 9 10 10 10 10 9 8
8 7 7 6 4 4 4 3 3 2 2 2 3 3 3 3 3 3 3 4 4 4 4 5 5 7 7 9 10 10 10 6 5 4 5 7 8 10 10 10 10 9 8
8 7 6 6 5 4 4 4 3 3 3 3 3 3 4 4 4 4 4 4 4 4 5 5 6 7 7 8 9 10 10 10 8 7 5 7 6 8 10 10 10 9 9
8 8 6 7 6 5 4 4 4 4 3 3 4 4 5 4 5 5 4 4 4 5 5 5 6 6 6 6 8 10 10 10 9 9 6 7 7 7 9 10 10 10 9
8 8 7 7 6 6 5 5 4 4 4 4 4 5 5 5 6 5 5 5 5 5 6 5 6 5 5 6 8 8 8 9 8 9 8 6 7 8 8 9 10 10 10
8 8 7 6 7 6 5 5 4 5 5 4 4 5 6 6 6 6 5 5 5 5 5 5 5 6 6 6 6 6 7 7 9 9 8 7 7 7 8 9 9 10 10
8 7 7 7 7 6 6 5 5 5 5 4 4 4 6 6 6 6 5 5 6 5 5 5 6 6 6 6 6 6 6 7 8 8 9 9 8 7 7 8 8 8 9
7 7 7 7 6 6 5 5 4 5 5 4 5 5 7 6 7 6 5 6 6 5 5 6 7 6 6 5 5 5 6 6 6 8 9 8 8 9 8 8 7 7 7
7 7 7 7 5 4 4 4 4 5 4 5 5 7 7 7 7 6 5 6 7 6 7 8 7 8 6 5 5 4 4 6 7 7 7 8 9 9 8 8 7 6 6
8 8 8 8 6 6 5 5 5 5 5 5 5 6 7 7 7 6 7 7 7 6 8 8 8 6 5 6 5 4 4 5 6 7 7 7 8 8 8 9 8 7 6
9 8 7 7 7 7 6 5 5 4 4 5 6 5 7 8 8 8 9 8 8 8 7 8 9 10 7 7 7 6 5 5 4 6 8 8 8 7 8 8 9 8 7
9 9 8 8 7 7 7 6 7 6 7 7 6 6 7 8 9 9 9 9 9 8 9 9 9 8 9 8 7 7 6 3 4 4 6 7 8 9 8 7 8 8 8
9 8 8 8 8 7 7 7 8 8 7 6 6 8 8 7 9 9 9 9 9 8 9 9 9 10 9 9 8 7 7 5 5 4 5 7 7 7 7 8 7 6 7
8 8 8 8 8 7 7 8 8 9 9 8 8 7 7 6 7 10 10 10 10 9 9 9 9 11 10 10 9 8 7 6 6 5 5 7 7 6 7 7 7 6 6
Wind_Direction
348 344 357 354 16 50 105 152 160 162 160 161 162 163 162 160 159 158 159 157 154 154 152 150 147 145 142 139 134 127 123 119 115 112 109 108 107 104 102 103 105 97 93
338 347 16 8 26 48 75 112 143 158 165 164 166 167 166 164 164 162 161 163 162 160 159 155 152 149 143 137 133 129 125 121 118 114 116 114 110 108 105 99 90 94 98
351 359 22 19 26 40 63 80 119 144 163 168 170 170 170 170 169 167 167 168 167 166 163 156 150 147 142 139 135 132 129 125 120 123 138 128 117 114 110 108 103 101 100
357 1 21 23 24 32 51 71 92 137 155 168 171 172 173 174 174 173 171 171 169 167 162 154 150 147 144 141 137 136 133 130 129 147 151 127 123 120 119 113 108 106 103
0 1 14 18 24 32 42 59 78 116 142 161 174 176 177 178 180 178 176 174 170 165 161 158 155 152 149 145 142 140 138 137 142 161 138 128 123 122 121 113 107 106 103
353 358 10 6 16 32 39 47 68 97 139 146 162 172 177 180 183 181 178 176 172 167 165 163 161 157 153 150 149 147 146 149 165 154 144 137 129 126 125 119 114 110 105
342 346 355 355 359 19 33 43 55 80 132 152 157 169 172 175 180 182 182 179 176 174 172 169 166 164 160 158 156 154 154 163 170 152 148 142 127 129 132 126 122 116 110
333 333 337 347 344 352 12 24 42 45 126 164 159 173 178 175 175 179 183 183 182 181 178 175 172 169 167 164 160 158 158 174 170 160 157 147 130 140 138 132 129 122 117
330 327 328 329 317 299 325 359 333 348 331 198 182 176 184 178 178 179 177 180 184 187 185 181 177 175 172 168 163 161 158 181 181 164 164 154 145 153 146 140 136 129 124
323 320 318 320 323 297 263 275 306 288 277 240 195 186 185 187 184 178 177 172 179 187 188 187 183 180 175 170 165 163 161 184 185 173 173 152 156 163 157 150 146 137 133
317 316 312 311 320 313 281 262 246 235 232 230 200 181 187 195 188 182 178 170 179 183 188 190 191 183 175 171 168 166 174 189 181 183 175 150 172 175 165 159 154 148 145
316 317 309 308 310 315 292 262 245 236 223 228 220 200 202 207 199 196 167 173 177 180 185 188 189 185 187 179 171 177 189 191 186 183 166 163 183 179 169 166 162 159 154
308 313 307 300 299 299 292 270 255 252 238 237 222 211 212 204 196 192 175 172 177 182 186 180 190 196 199 189 183 189 192 190 191 181 167 172 192 188 178 173 170 167 164
301 304 310 300 289 287 288 272 253 244 237 236 221 213 216 204 200 199 195 192 193 195 194 197 200 197 203 197 194 192 191 193 194 186 163 172 196 194 186 181 179 176 173
296 298 306 299 290 280 280 272 253 242 237 228 216 211 219 213 203 204 204 200 202 200 200 206 206 199 203 202 200 198 196 197 196 191 170 172 199 201 196 193 189 185 182
295 295 298 294 286 275 266 266 259 244 232 232 220 208 214 219 211 206 207 207 206 203 205 213 213 207 203 202 203 203 202 199 202 198 191 179 194 205 207 203 199 195 192
293 293 289 288 281 273 264 263 257 245 231 227 223 209 208 220 217 211 208 210 210 208 209 214 214 214 208 203 207 207 205 204 201 201 199 197 193 196 208 210 207 205 202
291 289 287 285 279 275 267 265 259 247 231 221 223 217 209 216 220 212 208 212 211 211 210 210 212 212 208 208 207 205 206 204 205 204 203 204 202 199 199 205 211 212 209
293 290 287 283 275 278 277 263 256 250 235 227 221 225 213 212 216 215 212 211 208 211 214 213 217 215 212 211 209 209 210 206 204 205 207 208 207 206 205 190 200 212 215
295 293 286 281 275 278 273 266 259 250 238 229 228 225 217 212 212 215 215 213 209 210 214 215 216 217 216 212 210 213 215 212 209 209 208 208 209 208 211 205 201 200 207
296 298 294 288 281 276 270 265 259 253 239 230 230 227 217 213 211 212 211 211 213 213 215 217 215 213 213 203 205 211 218 218 214 211 209 209 208 206 210 210 209 209 202
308 301 293 284 278 274 271 265 256 257 248 241 238 232 221 215 213 214 211 210 214 217 218 218 214 213 214 205 206 199 206 209 212 214 209 210 209 202 206 210 209 208 211
308 304 297 287 281 276 274 267 262 257 247 239 236 234 226 220 219 218 219 215 215 217 218 217 216 216 212 211 212 210 206 208 189 198 208 207 207 204 205 207 210 210 212
306 304 294 287 282 278 271 262 257 251 251 245 239 237 232 224 222 222 223 221 218 219 219 219 219 222 214 214 214 225 231 216 200 190 198 205 207 209 209 206 208 209 210
308 307 299 296 288 281 269 261 256 250 254 250 244 239 234 228 224 223 224 223 221 221 222 222 222 223 218 219 217 214 217 216 221 212 204 198 203 210 211 210 209 208 209
315 313 310 302 292 285 271 262 257 252 253 249 250 246 236 231 231 227 224 225 222 220 220 222 224 224 223 222 221 218 214 208 208 211 214 206 206 203 204 208 210 208 209